RH
39 40 50 48 48 45 94 97 100 100 99 100 98 100 100 100 92 100 99 98 100 100 100 82 63 71 68 87 67 67 67 54 47 50 58 45 53 52
63 57 65 59 48 43 98 100 100 100 98 74 92 99 100 81 76 99 100 100 100 93 66 94 95 61 86 80 67 76 66 49 55 52 53 56 54 67
64 69 67 55 42 32 74 100 100 100 100 100 100 98 97 86 91 100 100 100 91 81 100 97 66 81 82 76 86 75 59 54 61 50 52 59 55 54
43 50 50 43 35 34 39 92 100 100 100 100 100 100 100 100 100 100 100 100 87 69 80 96 90 77 87 73 77 71 72 56 63 54 54 55 53 28
27 37 42 39 39 43 72 51 100 100 100 100 100 100 100 100 100 100 100 99 100 100 100 84 86 96 85 70 64 79 61 59 53 50 64 40 27 28
23 30 38 44 42 81 62 48 98 100 100 100 100 100 100 100 100 100 100 100 100 100 90 94 92 90 58 66 83 75 60 65 53 58 34 26 28 23
20 28 29 39 47 46 49 43 77 100 100 100 100 100 100 100 98 100 98 100 94 98 99 72 93 84 76 74 73 60 49 50 49 37 30 34 26 24
22 28 32 35 46 46 40 44 52 69 100 100 100 100 100 100 100 100 95 98 100 100 89 90 95 88 66 65 71 53 50 43 34 30 33 31 28 24
27 30 33 37 50 38 37 52 55 65 77 100 100 100 100 100 100 100 100 100 91 98 97 100 93 80 75 83 62 55 46 28 30 32 34 30 28 20
28 39 43 46 40 47 59 60 65 93 99 100 100 100 100 100 98 98 100 93 94 81 75 80 99 78 100 75 58 45 28 27 31 31 31 30 18 12
34 42 45 50 53 70 80 80 93 100 100 100 100 100 100 92 99 94 91 100 99 72 98 81 88 97 77 67 55 29 32 30 32 32 28 17 12 10
46 51 59 57 61 66 72 85 100 100 100 100 100 89 91 100 100 100 95 100 89 78 95 99 84 70 65 55 35 36 39 32 34 26 14 11 10 9
52 56 59 61 66 68 66 98 100 100 100 100 100 100 100 100 100 100 86 87 90 90 96 78 70 58 51 35 46 41 34 33 22 14 11 9 9 8
65 60 59 63 74 92 96 100 100 100 100 100 100 100 100 100 99 82 85 80 85 81 71 59 51 41 34 36 33 36 34 20 12 10 9 7 7 7
99 100 99 100 100 100 100 100 100 100 100 100 100 100 100 93 89 82 85 88 70 67 59 37 39 34 34 30 34 31 16 13 9 8 6 6 6 6
100 100 100 100 100 100 100 100 100 100 100 100 100 94 100 84 77 78 72 73 68 52 41 36 37 30 32 34 23 13 11 9 8 6 5 5 6 6
100 100 100 100 100 100 100 99 99 99 96 91 96 98 100 96 79 73 60 43 47 44 43 34 30 37 33 20 12 10 10 7 7 6 6 6 7 7
100 100 100 100 100 98 98 89 88 85 89 95 88 76 58 45 39 41 51 47 44 38 33 33 38 30 16 13 8 9 7 8 8 7 7 6 6 8
100 98 96 95 94 98 100 100 95 86 73 62 44 33 44 40 46 53 46 40 38 32 36 33 21 13 12 11 8 7 8 8 7 5 5 5 5 7
91 95 97 94 92 85 78 70 60 51 38 37 38 41 50 54 44 43 40 35 33 34 27 16 12 12 10 10 8 6 8 6 5 4 5 5 6 6
77 72 67 60 52 50 46 48 49 49 50 53 53 47 47 50 46 40 31 29 29 20 15 12 10 9 9 8 8 7 5 6 6 5 5 5 6 6
53 47 46 50 55 57 50 53 58 54 56 56 57 55 49 42 29 28 30 22 18 13 12 10 9 8 8 9 7 6 5 5 6 6 7 5 6 7
62 61 54 55 54 51 56 68 69 63 64 64 52 42 32 29 30 24 18 16 13 12 10 9 8 8 9 7 6 6 6 6 6 7 10 9 8 10
Wind_Speed
94 95 91 88 85 79 81 74 67 61 64 70 67 68 70 72 73 73 73 77 77 79 81 82 86 88 87 90 93 96 98 101 109 108 108 114 116 118
97 99 96 93 90 85 78 66 68 64 69 70 68 69 72 71 68 67 67 76 78 79 84 82 91 93 92 95 100 102 105 110 113 114 116 119 123 128
102 100 98 98 92 85 87 79 71 74 67 61 66 71 66 68 69 66 73 78 81 83 85 89 95 95 98 100 104 110 113 115 119 119 124 125 132 130
103 100 99 96 87 85 84 88 76 70 66 63 67 70 69 65 71 77 80 80 83 90 91 92 96 100 102 106 110 113 115 119 124 127 130 136 134 133
97 94 91 88 81 81 81 81 85 85 65 69 70 74 73 74 78 84 82 88 89 88 93 97 101 103 107 110 115 116 120 125 130 133 135 132 136 128
89 91 89 84 81 81 85 80 85 82 71 70 71 80 86 89 85 84 87 86 86 95 98 103 107 108 115 116 117 121 126 129 138 137 135 139 138 119
82 84 84 83 82 83 83 76 77 75 72 77 78 84 89 88 84 80 87 90 94 98 104 107 110 115 115 119 123 128 135 139 138 137 140 138 122 121
77 80 78 79 82 82 70 72 75 77 81 84 90 90 91 92 87 86 91 96 97 98 106 112 114 119 126 127 131 134 138 136 140 142 139 126 126 128
72 72 70 70 76 69 64 68 70 75 83 87 88 84 85 89 86 89 92 98 104 104 103 109 116 123 130 130 134 138 142 141 142 133 124 127 131 126
65 63 65 62 62 63 63 68 73 72 74 75 81 83 82 89 93 96 99 102 107 110 112 116 119 123 126 133 142 146 143 142 125 124 128 131 125 115
56 56 57 59 60 64 68 68 67 66 70 75 77 80 85 91 95 99 101 104 109 116 114 118 120 122 134 144 149 147 138 123 127 131 130 121 111 109
55 54 56 61 65 68 63 63 67 73 77 79 84 90 91 91 97 101 107 108 113 120 121 119 126 133 137 144 145 136 129 130 133 131 122 110 104 103
54 55 57 59 60 62 62 65 69 74 79 83 87 90 94 98 102 107 112 115 120 122 126 131 136 141 139 138 123 128 130 132 131 121 110 102 96 91
50 52 55 57 59 61 66 69 72 77 81 84 89 93 100 101 109 114 120 125 128 135 135 137 136 137 124 117 121 128 131 127 115 110 104 93 85 78
42 47 50 54 59 62 68 75 79 85 86 88 94 100 105 113 120 122 127 128 133 136 138 133 128 112 118 120 124 127 119 115 106 99 90 79 72 68
46 52 57 60 65 70 75 80 84 88 92 96 105 111 115 121 123 126 129 134 137 140 135 118 113 117 121 126 122 113 105 100 97 86 77 69 61 61
48 55 61 65 70 74 77 82 88 92 96 102 107 111 115 120 128 133 133 126 126 112 111 116 120 122 125 118 108 100 99 90 80 73 67 60 52 54
54 56 62 64 68 74 79 85 89 94 98 100 105 110 114 116 117 121 115 105 104 109 114 117 119 119 115 115 95 90 87 77 71 65 60 56 47 49
58 63 69 73 78 78 84 90 95 98 100 104 106 112 109 109 98 94 99 103 108 114 118 117 113 104 100 99 98 78 72 67 66 60 55 49 44 41
68 70 75 78 83 87 91 95 98 99 103 105 104 95 86 88 94 98 103 108 110 112 113 111 101 92 90 89 84 72 59 61 57 54 47 43 40 36
77 79 83 84 84 85 90 95 97 95 87 80 81 85 89 92 98 103 106 108 107 104 103 96 89 85 81 78 70 64 57 51 52 50 46 41 36 34
76 77 80 83 80 75 77 74 71 74 78 82 87 90 94 99 102 104 106 101 99 97 90 88 84 78 71 66 62 57 53 47 45 44 45 41 33 27
61 59 57 56 57 61 66 70 75 79 83 87 92 97 100 103 104 101 96 94 90 84 84 82 76 68 62 59 54 51 48 45 41 35 32 38 30 23
Wind_Direction
246 248 250 252 254 254 251 246 251 252 256 262 262 263 266 267 271 270 275 277 275 280 284 287 291 293 294 293 294 296 298 301 304 307 305 308 309 307
245 249 250 251 253 250 243 241 247 253 258 259 260 262 264 270 274 276 276 273 276 280 285 289 290 294 292 293 296 297 299 303 303 307 305 308 309 310
244 247 250 252 253 249 240 241 244 249 255 262 264 263 265 269 271 272 274 277 280 285 286 288 290 290 291 294 296 297 303 302 303 306 309 309 310 310
243 243 245 249 248 246 243 240 242 248 252 261 264 261 264 267 270 272 275 279 281 285 288 290 289 290 292 294 296 298 300 302 305 307 308 308 308 308
239 239 242 243 242 245 243 242 241 245 250 256 258 262 266 272 275 274 276 281 286 287 286 289 289 290 293 294 298 296 301 302 307 308 305 308 308 310
235 235 236 238 240 242 244 243 242 246 251 255 256 261 265 268 273 278 280 283 283 285 286 287 289 291 292 296 296 298 302 303 309 308 309 308 309 308
231 231 233 235 238 241 243 243 247 247 249 251 256 260 265 271 277 275 278 281 283 284 284 287 290 292 293 296 298 300 303 307 308 309 308 310 309 309
227 230 231 234 237 242 246 244 246 250 248 251 255 261 264 270 276 276 279 281 283 283 285 289 292 294 295 300 300 304 307 308 308 308 308 309 309 309
222 226 230 236 239 245 244 241 243 247 249 254 260 265 268 271 274 277 279 279 283 284 288 289 292 296 296 301 302 305 306 307 307 308 308 309 309 308
215 222 226 233 240 242 240 241 244 250 252 259 264 268 271 270 275 277 278 281 282 284 288 291 293 296 298 300 302 306 306 307 308 308 309 308 308 306
211 218 224 230 232 232 239 242 246 250 256 261 264 266 269 272 274 277 279 282 284 287 289 293 295 296 300 301 303 304 306 308 309 308 308 308 307 308
207 214 221 225 227 232 242 248 248 255 258 260 265 270 271 272 274 278 278 284 287 288 291 291 294 296 300 302 303 303 306 308 308 306 308 308 308 307
209 216 224 227 233 238 242 244 252 253 257 263 265 268 270 272 275 276 281 283 284 289 289 292 293 299 301 301 302 303 306 306 305 307 306 307 308 304
215 222 228 232 238 241 243 246 252 256 258 261 266 270 271 273 276 278 279 281 283 285 290 294 299 300 300 301 304 304 305 305 307 307 307 307 305 303
222 227 232 236 240 244 246 248 253 257 261 265 269 272 273 273 276 278 280 283 285 289 293 298 299 300 301 304 305 303 305 306 306 306 305 305 304 300
224 229 232 237 242 246 248 252 256 259 264 266 267 271 274 275 277 280 283 287 290 294 296 300 301 302 305 304 304 305 308 307 307 306 306 306 303 298
236 241 241 245 250 252 255 257 260 262 266 269 271 273 278 280 281 284 288 293 295 296 298 300 304 305 304 303 306 310 309 307 307 306 306 306 303 297
242 247 247 251 254 256 259 262 266 268 270 275 280 281 284 286 289 292 294 294 296 298 298 302 303 304 305 307 308 311 308 308 306 305 305 304 302 294
251 253 255 257 260 265 265 267 269 274 281 282 285 286 287 290 292 292 294 296 297 300 302 304 303 304 308 307 307 312 308 307 305 305 305 304 301 294
255 258 260 263 265 268 273 276 280 281 284 285 286 289 291 291 292 294 295 296 302 304 304 303 309 308 308 308 307 310 309 305 304 303 305 303 299 295
263 267 269 271 275 277 280 283 283 284 286 286 287 289 291 293 294 294 299 303 305 304 304 307 308 309 309 307 307 308 309 306 305 305 306 303 299 294
271 274 276 279 280 280 281 281 283 285 288 290 291 292 292 293 297 302 304 305 304 305 310 308 309 310 309 307 308 309 309 309 307 308 305 303 304 301
278 276 277 279 281 283 285 286 287 288 289 291 292 293 296 300 302 305 306 304 306 307 308 309 310 309 308 308 309 310 310 309 310 308 303 304 314 313